| time (UTC) | temp F | wind direction | speed MPH | gust MPH | rain 1hr in | rain 24hr in | rain mn in | humidity % | barometer mb |
| 20260831203616 | 81 | 225 | 14.0 | 20.0 | 0.00 | 0.00 | 0.00 | 37 | 1016.6 |
| 20260831202622 | 81 | 235 | 10.0 | 20.0 | 0.00 | 0.00 | 0.00 | 38 | 1016.6 |
| 20260831201131 | 80 | 206 | 9.0 | 20.0 | 0.00 | 0.00 | 0.00 | 39 | 1016.5 |
| 20260831200634 | 80 | 218 | 12.0 | 19.0 | 0.00 | 0.00 | 0.00 | 39 | 1016.6 |
| 20260831200137 | 80 | 238 | 10.0 | 19.0 | 0.00 | 0.00 | 0.00 | 40 | 1016.8 |
| 20260831195143 | 80 | 253 | 4.0 | 19.0 | 0.00 | 0.00 | 0.00 | 40 | 1016.8 |
| 20260831194646 | 81 | 223 | 11.0 | 19.0 | 0.00 | 0.00 | 0.00 | 39 | 1016.8 |
| 20260831194149 | 80 | 236 | 7.0 | 22.0 | 0.00 | 0.00 | 0.00 | 41 | 1016.9 |
| 20260831193652 | 80 | 239 | 9.0 | 22.0 | 0.00 | 0.00 | 0.00 | 41 | 1016.9 |
| 20260831193155 | 79 | 271 | 11.0 | 22.0 | 0.00 | 0.00 | 0.00 | 42 | 1016.9 |
| 20260831192201 | 79 | 222 | 14.0 | 20.0 | 0.00 | 0.00 | 0.00 | 42 | |
| 20260831190710 | 79 | 217 | 14.0 | 22.0 | 0.00 | 0.00 | 0.00 | 37 | 1017.2 |
| 20260831185219 | 79 | 213 | 13.0 | 21.0 | 0.00 | 0.00 | 0.00 | 37 | 1017.1 |
| 20260831183728 | 78 | 211 | 9.0 | 20.0 | 0.00 | 0.00 | 0.00 | 38 | 1017.2 |
| 20260831183231 | 78 | 212 | 14.0 | 20.0 | 0.00 | 0.00 | 0.00 | 39 | 1017.2 |
| 20260831182237 | 78 | 229 | 7.0 | 20.0 | 0.00 | 0.00 | 0.00 | 36 | 1017.3 |
| 20260831180746 | 78 | 214 | 12.0 | 18.0 | 0.00 | 0.00 | 0.00 | 36 | 1017.1 |
| 20260831180249 | 79 | 211 | 11.0 | 16.0 | 0.00 | 0.00 | 0.00 | 35 | 1017.0 |
| 20260831175752 | 78 | 273 | 10.0 | 18.0 | 0.00 | 0.00 | 0.00 | 34 | 1017.1 |
| 20260831175255 | 78 | 250 | 8.0 | 18.0 | 0.00 | 0.00 | 0.00 | 34 | 1017.2 |
| 20260831174758 | 78 | 276 | 9.0 | 19.0 | 0.00 | 0.00 | 0.00 | 33 | 1017.1 |
| 20260831174301 | 78 | 269 | 11.0 | 19.0 | 0.00 | 0.00 | 0.00 | 34 | 1017.1 |
| 20260831173804 | 78 | 219 | 11.0 | 18.0 | 0.00 | 0.00 | 0.00 | 33 | 1016.2 |
| 20260831173307 | 78 | 246 | 6.0 | 16.0 | 0.00 | 0.00 | 0.00 | 34 | 1016.2 |
| 20260831172810 | 78 | 222 | 11.0 | 20.0 | 0.00 | 0.00 | 0.00 | 36 | 1016.3 |
| 20260831172313 | 77 | 237 | 6.0 | 20.0 | 0.00 | 0.00 | 0.00 | 33 | 1016.3 |
| 20260831171816 | 77 | 222 | 12.0 | 20.0 | 0.00 | 0.00 | 0.00 | 31 | 1016.2 |
| 20260831170325 | 76 | 259 | 9.0 | 16.0 | 0.00 | 0.00 | 0.00 | 30 | 1015.9 |
| 20260831165828 | 76 | 236 | 6.0 | 19.0 | 0.00 | 0.00 | 0.00 | 29 | 1015.9 |
| 20260831164834 | 76 | 265 | 11.0 | 17.0 | 0.00 | 0.00 | 0.00 | 27 | 1015.8 |
| 20260831164337 | 76 | 267 | 7.0 | 16.0 | 0.00 | 0.00 | 0.00 | 26 | 1015.8 |
| 20260831163840 | 75 | 266 | 10.0 | 16.0 | 0.00 | 0.00 | 0.00 | 26 | 1015.8 |
| 20260831163343 | 75 | 267 | 7.0 | 20.0 | 0.00 | 0.00 | 0.00 | 26 | 1015.9 |
| 20260831155904 | 74 | 256 | 8.0 | 17.0 | 0.00 | 0.00 | 0.00 | 23 | 1015.6 |
| 20260831155407 | 73 | 259 | 11.0 | 18.0 | 0.00 | 0.00 | 0.00 | 22 | 1015.4 |
| 20260831154413 | 72 | 270 | 13.0 | 20.0 | 0.00 | 0.00 | 0.00 | 23 | 1015.5 |
| 20260831153419 | 71 | 270 | 14.0 | 21.0 | 0.00 | 0.00 | 0.00 | 23 | 1015.4 |
| 20260831145940 | 69 | 260 | 14.0 | 22.0 | 0.00 | 0.00 | 0.00 | 25 | 1015.0 |
| 20260831145443 | 69 | 260 | 14.0 | 22.0 | 0.00 | 0.00 | 0.00 | 25 | 1014.9 |
| 20260831144449 | 68 | 259 | 15.0 | 22.0 | 0.00 | 0.00 | 0.00 | 25 | 1014.9 |
| 20260831143952 | 68 | 256 | 15.0 | 22.0 | 0.00 | 0.00 | 0.00 | 25 | 1014.9 |
| 20260831142958 | 67 | 256 | 15.0 | 21.0 | 0.00 | 0.00 | 0.00 | 26 | 1014.7 |
| 20260831142501 | 67 | 250 | 16.0 | 22.0 | 0.00 | 0.00 | 0.00 | 26 | 1014.7 |
| 20260831141011 | 66 | 254 | 13.0 | 21.0 | 0.00 | 0.00 | 0.00 | 28 | 1014.5 |
| 20260831140513 | 66 | 253 | 14.0 | 21.0 | 0.00 | 0.00 | 0.00 | 28 | 1014.5 |
| 20260831135519 | 65 | 251 | 16.0 | 21.0 | 0.00 | 0.00 | 0.00 | 28 | 1014.1 |
| 20260831134029 | 65 | 250 | 16.0 | 22.0 | 0.00 | 0.00 | 0.00 | 28 | 1014.6 |
| 20260831133532 | 65 | 250 | 14.0 | 21.0 | 0.00 | 0.00 | 0.00 | 28 | 1014.5 |
| 20260831133034 | 65 | 250 | 15.0 | 22.0 | 0.00 | 0.00 | 0.00 | 28 | 1014.5 |
| 20260831132537 | 65 | 252 | 16.0 | 22.0 | 0.00 | 0.00 | 0.00 | 28 | 1014.5 |
| 20260831132041 | 65 | 256 | 16.0 | 22.0 | 0.00 | 0.00 | 0.00 | 28 | 1014.5 |
| 20260831125556 | 66 | 255 | 17.0 | 22.0 | 0.00 | 0.00 | 0.00 | 27 | 1014.2 |
| 20260831125059 | 66 | 256 | 15.0 | 22.0 | 0.00 | 0.00 | 0.00 | 26 | 1014.2 |
| 20260831124105 | 66 | 252 | 16.0 | 24.0 | 0.00 | 0.00 | 0.00 | 26 | 1014.2 |
| 20260831123607 | 66 | 259 | 18.0 | 24.0 | 0.00 | 0.00 | 0.00 | 26 | 1014.2 |
| 20260831123111 | 66 | 254 | 17.0 | 24.0 | 0.00 | 0.00 | 0.00 | 26 | 1014.2 |
| 20260831122613 | 66 | 251 | 17.0 | 24.0 | 0.00 | 0.00 | 0.00 | 27 | 1014.0 |
| 20260831121619 | 66 | 253 | 17.0 | 24.0 | 0.00 | 0.00 | 0.00 | 26 | 1014.1 |
| 20260831120625 | 66 | 252 | 18.0 | 25.0 | 0.00 | 0.00 | 0.00 | 26 | 1013.9 |
| 20260831120129 | 66 | 253 | 17.0 | 25.0 | 0.00 | 0.00 | 0.00 | 26 | 1013.9 |
| 20260831115135 | 66 | 258 | 18.0 | 24.0 | 0.00 | 0.00 | 0.00 | 26 | 1014.0 |
| 20260831114638 | 66 | 256 | 16.0 | 24.0 | 0.00 | 0.00 | 0.00 | 26 | 1014.0 |
| 20260831113644 | 66 | 253 | 16.0 | 24.0 | 0.00 | 0.00 | 0.00 | 27 | 1014.0 |
| 20260831112649 | 66 | 261 | 14.0 | 23.0 | 0.00 | 0.00 | 0.00 | 27 | 1014.0 |
| 20260831112153 | 66 | 257 | 16.0 | 23.0 | 0.00 | 0.00 | 0.00 | 27 | 1014.0 |
| 20260831105708 | 66 | 256 | 19.0 | 24.0 | 0.00 | 0.00 | 0.00 | 27 | 1013.8 |
| 20260831104217 | 66 | 255 | 17.0 | 25.0 | 0.00 | 0.00 | 0.00 | 28 | 1014.0 |
| 20260831103720 | 66 | 258 | 15.0 | 24.0 | 0.00 | 0.00 | 0.00 | 29 | 1013.9 |
| 20260831102229 | 66 | 256 | 15.0 | 26.0 | 0.00 | 0.00 | 0.00 | 31 | 1014.0 |
| 20260831101235 | 66 | 257 | 17.0 | 23.0 | 0.00 | 0.00 | 0.00 | 33 | 1014.1 |
| 20260831100738 | 66 | 249 | 17.0 | 23.0 | 0.00 | 0.00 | 0.00 | 34 | 1014.0 |
| 20260831095744 | 66 | 248 | 16.0 | 24.0 | 0.00 | 0.00 | 0.00 | 35 | 1014.0 |
| 20260831095247 | 66 | 257 | 17.0 | 24.0 | 0.00 | 0.00 | 0.00 | 35 | 1014.0 |
| 20260831094750 | 66 | 258 | 16.0 | 24.0 | 0.00 | 0.00 | 0.00 | 36 | 1014.2 |
| 20260831094253 | 66 | 253 | 15.0 | 22.0 | 0.00 | 0.00 | 0.00 | 36 | 1014.2 |
| 20260831093259 | 66 | 256 | 15.0 | 23.0 | 0.00 | 0.00 | 0.00 | 36 | 1014.1 |
| 20260831092802 | 67 | 257 | 15.0 | 24.0 | 0.00 | 0.00 | 0.00 | 36 | 1014.1 |
| 20260831092306 | 67 | 258 | 13.0 | 26.0 | 0.00 | 0.00 | 0.00 | 36 | 1014.2 |
| 20260831091808 | 67 | 259 | 16.0 | 26.0 | 0.00 | 0.00 | 0.00 | 36 | 1014.2 |
| 20260831091311 | 67 | 258 | 15.0 | 21.0 | 0.00 | 0.00 | 0.00 | 35 | 1014.2 |
| 20260831090317 | 67 | 246 | 14.0 | 24.0 | 0.00 | 0.00 | 0.00 | 35 | 1014.3 |
| 20260831085323 | 67 | 254 | 14.0 | 22.0 | 0.00 | 0.00 | 0.00 | 36 | 1014.3 |
| 20260831084329 | 67 | 247 | 16.0 | 24.0 | 0.00 | 0.00 | 0.00 | 36 | 1014.4 |
| 20260831083832 | 67 | 252 | 18.0 | 24.0 | 0.00 | 0.00 | 0.00 | 37 | 1014.5 |
| 20260831083335 | 67 | 253 | 15.0 | 23.0 | 0.00 | 0.00 | 0.00 | 39 | 1014.4 |
| 20260831082341 | 67 | 253 | 17.0 | 24.0 | 0.00 | 0.00 | 0.00 | 39 | 1014.4 |
| 20260831081844 | 68 | 252 | 18.0 | 24.0 | 0.00 | 0.00 | 0.00 | 39 | 1014.6 |
| 20260831081347 | 68 | 245 | 17.0 | 22.0 | 0.00 | 0.00 | 0.00 | 40 | 1014.7 |
| 20260831080850 | 68 | 246 | 15.0 | 24.0 | 0.00 | 0.00 | 0.00 | 38 | 1014.7 |
| 20260831075856 | 68 | 245 | 14.0 | 23.0 | 0.00 | 0.00 | 0.00 | 40 | 1014.8 |
| 20260831074902 | 67 | 242 | 17.0 | 23.0 | 0.00 | 0.00 | 0.00 | 41 | 1014.8 |
| 20260831074405 | 67 | 254 | 17.0 | 23.0 | 0.00 | 0.00 | 0.00 | 41 | 1014.9 |
| 20260831073908 | 67 | 249 | 16.0 | 23.0 | 0.00 | 0.00 | 0.00 | 43 | 1014.8 |
| 20260831072914 | 67 | 246 | 16.0 | 22.0 | 0.00 | 0.00 | 0.00 | 42 | 1014.8 |
| 20260831072417 | 68 | 241 | 14.0 | 21.0 | 0.00 | 0.00 | 0.00 | 41 | 1014.8 |
| 20260831071920 | 68 | 245 | 13.0 | 20.0 | 0.00 | 0.00 | 0.00 | 41 | 1014.7 |
| 20260831071423 | 68 | 248 | 15.0 | 20.0 | 0.00 | 0.00 | 0.00 | 42 | 1014.8 |
| 20260831070926 | 68 | 245 | 15.0 | 21.0 | 0.00 | 0.00 | 0.00 | 42 | 1014.8 |
| 20260831065932 | 68 | 252 | 14.0 | 20.0 | 0.00 | 0.00 | 0.00 | 41 | 1014.8 |
| 20260831063944 | 68 | 256 | 8.0 | 17.0 | 0.00 | 0.00 | 0.00 | 40 | 1014.9 |
| 20260831063447 | 69 | 254 | 10.0 | 18.0 | 0.00 | 0.00 | 0.00 | 39 | 1014.8 |
| 20260831062950 | 69 | 246 | 11.0 | 20.0 | 0.00 | 0.00 | 0.00 | 38 | 1014.8 |
| 20260831062453 | 69 | 248 | 14.0 | 20.0 | 0.00 | 0.00 | 0.00 | 38 | 1014.9 |
| 20260831061956 | 69 | 254 | 11.0 | 19.0 | 0.00 | 0.00 | 0.00 | 38 | 1014.6 |
| 20260831061459 | 69 | 250 | 12.0 | 21.0 | 0.00 | 0.00 | 0.00 | 38 | 1014.7 |
| 20260831061002 | 69 | 255 | 14.0 | 21.0 | 0.00 | 0.00 | 0.00 | 37 | 1014.7 |
| 20260831055014 | 69 | 262 | 10.0 | 17.0 | 0.00 | 0.00 | 0.00 | 33 | 1014.6 |
| 20260831054517 | 69 | 263 | 12.0 | 17.0 | 0.00 | 0.00 | 0.00 | 34 | 1014.6 |
| 20260831053523 | 69 | 258 | 10.0 | 19.0 | 0.00 | 0.00 | 0.00 | 38 | 1014.6 |
| 20260831053026 | 69 | 257 | 13.0 | 19.0 | 0.00 | 0.00 | 0.00 | 38 | 1014.6 |
| 20260831051535 | 69 | 255 | 12.0 | 21.0 | 0.00 | 0.00 | 0.00 | 41 | 1015.3 |
| 20260831051038 | 69 | 259 | 14.0 | 21.0 | 0.00 | 0.00 | 0.00 | 41 | 1015.3 |
| 20260831050541 | 68 | 255 | 12.0 | 20.0 | 0.00 | 0.00 | 0.00 | 43 | 1015.2 |
| 20260831044553 | 68 | 254 | 14.0 | 19.0 | 0.00 | 0.00 | 0.00 | 47 | 1015.3 |
| 20260831044056 | 68 | 254 | 13.0 | 19.0 | 0.00 | 0.00 | 0.00 | 49 | 1015.4 |
| 20260831042108 | 68 | 249 | 13.0 | 20.0 | 0.00 | 0.00 | 0.00 | 57 | 1015.2 |
| 20260831041611 | 68 | 251 | 11.0 | 20.0 | 0.00 | 0.00 | 0.00 | 58 | 1015.2 |
| 20260831041114 | 68 | 259 | 14.0 | 20.0 | 0.00 | 0.00 | 0.00 | 59 | 1015.2 |
| 20260831040617 | 67 | 258 | 12.0 | 19.0 | 0.00 | 0.00 | 0.00 | 59 | 1015.1 |
| 20260831033635 | 68 | 258 | 12.0 | 21.0 | 0.00 | 0.00 | 0.00 | 64 | 1014.8 |
| 20260831032641 | 68 | 257 | 14.0 | 20.0 | 0.00 | 0.00 | 0.00 | 63 | 1014.5 |
| 20260831032144 | 67 | 248 | 13.0 | 20.0 | 0.00 | 0.00 | 0.00 | 65 | 1014.6 |
| 20260831031647 | 67 | 255 | 13.0 | 18.0 | 0.00 | 0.00 | 0.00 | 66 | 1014.5 |
| 20260831030653 | 68 | 247 | 14.0 | 19.0 | 0.00 | 0.00 | 0.00 | 67 | 1014.5 |
| 20260831030156 | 68 | 254 | 13.0 | 23.0 | 0.00 | 0.00 | 0.00 | 67 | 1014.5 |
| 20260831025659 | 68 | 249 | 14.0 | 23.0 | 0.00 | 0.00 | 0.00 | 67 | 1014.5 |
| 20260831024208 | 68 | 256 | 15.0 | 21.0 | 0.00 | 0.00 | 0.00 | 66 | 1014.5 |
| 20260831023711 | 69 | 255 | 13.0 | 20.0 | 0.00 | 0.00 | 0.00 | 65 | 1014.5 |
| 20260831023214 | 69 | 260 | 14.0 | 19.0 | 0.00 | 0.00 | 0.00 | 64 | 1014.5 |
| 20260831022717 | 69 | 267 | 15.0 | 20.0 | 0.00 | 0.00 | 0.00 | 63 | 1014.4 |
| 20260831022220 | 70 | 265 | 14.0 | 22.0 | 0.00 | 0.00 | 0.00 | 62 | 1014.5 |
| 20260831021723 | 70 | 266 | 15.0 | 22.0 | 0.00 | 0.00 | 0.00 | 61 | 1014.4 |
| 20260831020232 | 72 | 258 | 16.0 | 22.0 | 0.00 | 0.00 | 0.00 | 56 | 1014.2 |
| 20260831015735 | 72 | 256 | 12.0 | 25.0 | 0.00 | 0.00 | 0.00 | 54 | 1014.2 |
| 20260831015238 | 73 | 267 | 11.0 | 25.0 | 0.00 | 0.00 | 0.00 | 53 | 1014.1 |
| 20260831014741 | 73 | 256 | 19.0 | 25.0 | 0.00 | 0.00 | 0.00 | 51 | 1014.1 |
| 20260831014244 | 73 | 259 | 19.0 | 25.0 | 0.00 | 0.00 | 0.00 | 50 | 1014.1 |
| 20260831013747 | 74 | 257 | 19.0 | 25.0 | 0.00 | 0.00 | 0.00 | 48 | 1014.0 |
| 20260831013250 | 74 | 259 | 17.0 | 25.0 | 0.00 | 0.00 | 0.00 | 47 | 1014.1 |
| 20260831012753 | 75 | 262 | 19.0 | 27.0 | 0.00 | 0.00 | 0.00 | 46 | 1014.1 |
| 20260831012256 | 75 | 263 | 19.0 | 27.0 | 0.00 | 0.00 | 0.00 | 44 | 1014.1 |
| 20260831011759 | 75 | 256 | 19.0 | 27.0 | 0.00 | 0.00 | 0.00 | 44 | 1014.1 |
| 20260831011302 | 76 | 259 | 18.0 | 27.0 | 0.00 | 0.00 | 0.00 | 44 | 1014.0 |
| 20260831010805 | 76 | 257 | 17.0 | 26.0 | 0.00 | 0.00 | 0.00 | 42 | 1014.0 |
| 20260831010308 | 77 | 260 | 19.0 | 25.0 | 0.00 | 0.00 | 0.00 | 40 | 1014.1 |
| 20260831005811 | 78 | 271 | 15.0 | 22.0 | 0.00 | 0.00 | 0.00 | 40 | 1014.2 |
| 20260831004817 | 78 | 266 | 15.0 | 25.0 | 0.00 | 0.00 | 0.00 | 39 | 1014.2 |
| 20260831004320 | 79 | 281 | 17.0 | 25.0 | 0.00 | 0.00 | 0.00 | 38 | 1014.3 |
| 20260831003823 | 79 | 267 | 11.0 | 21.0 | 0.00 | 0.00 | 0.00 | 38 | 1014.2 |
| 20260831003326 | 79 | 281 | 9.0 | 25.0 | 0.00 | 0.00 | 0.00 | 39 | 1014.2 |
| 20260831002829 | 79 | 272 | 14.0 | 25.0 | 0.00 | 0.00 | 0.00 | 38 | 1014.3 |
| 20260831002332 | 80 | 267 | 15.0 | 22.0 | 0.00 | 0.00 | 0.00 | 36 | 1014.4 |
| 20260831001835 | 80 | 266 | 13.0 | 22.0 | 0.00 | 0.00 | 0.00 | 36 | 1014.5 |
| 20260831001338 | 80 | 255 | 11.0 | 23.0 | 0.00 | 0.00 | 0.00 | 35 | 1014.6 |
| 20260831000841 | 80 | 258 | 17.0 | 24.0 | 0.00 | 0.00 | 0.00 | 33 | 1014.3 |
| 20260831000344 | 80 | 267 | 13.0 | 24.0 | 0.00 | 0.00 | 0.00 | 33 | 1014.4 |
| 20260830235847 | 80 | 261 | 17.0 | 24.0 | 0.00 | 0.00 | 0.00 | 32 | 1014.5 |
| 20260830235350 | 81 | 257 | 12.0 | 24.0 | 0.00 | 0.00 | 0.00 | 32 | 1014.6 |
| 20260830234853 | 81 | 264 | 16.0 | 24.0 | 0.00 | 0.00 | 0.00 | 31 | 1014.6 |
| 20260830234356 | 81 | 262 | 14.0 | 23.0 | 0.00 | 0.00 | 0.00 | 32 | 1014.7 |
| 20260830233859 | 81 | 255 | 13.0 | 23.0 | 0.00 | 0.00 | 0.00 | 31 | 1014.8 |
| 20260830233402 | 81 | 244 | 14.0 | 23.0 | 0.00 | 0.00 | 0.00 | 30 | 1014.7 |
| 20260830232408 | 82 | 261 | 11.0 | 24.0 | 0.00 | 0.00 | 0.00 | 31 | 1014.7 |
| 20260830231911 | 82 | 277 | 17.0 | 23.0 | 0.00 | 0.00 | 0.00 | 32 | 1014.5 |
| 20260830231414 | 82 | 271 | 16.0 | 24.0 | 0.00 | 0.00 | 0.00 | 31 | 1014.6 |
| 20260830230917 | 82 | 257 | 16.0 | 25.0 | 0.00 | 0.00 | 0.00 | 31 | 1014.7 |
| 20260830225923 | 83 | 241 | 15.0 | 24.0 | 0.00 | 0.00 | 0.00 | 32 | 1014.9 |
| 20260830225426 | 83 | 265 | 13.0 | 24.0 | 0.00 | 0.00 | 0.00 | 32 | 1015.0 |
| 20260830224929 | 83 | 269 | 13.0 | 22.0 | 0.00 | 0.00 | 0.00 | 31 | 1014.9 |
| 20260830222941 | 83 | 293 | 11.0 | 22.0 | 0.00 | 0.00 | 0.00 | 32 | 1015.2 |
| 20260830222444 | 83 | 255 | 13.0 | 21.0 | 0.00 | 0.00 | 0.00 | 32 | 1015.2 |
| 20260830221947 | 84 | 259 | 13.0 | 21.0 | 0.00 | 0.00 | 0.00 | 32 | 1015.1 |
| 20260830221450 | 84 | 252 | 13.0 | 21.0 | 0.00 | 0.00 | 0.00 | 32 | 1015.1 |
| 20260830220953 | 84 | 292 | 13.0 | 24.0 | 0.00 | 0.00 | 0.00 | 32 | 1015.1 |
| 20260830220456 | 85 | 245 | 12.0 | 24.0 | 0.00 | 0.00 | 0.00 | 33 | 1015.2 |
| 20260830215959 | 86 | 284 | 13.0 | 20.0 | 0.00 | 0.00 | 0.00 | 32 | 1015.2 |
| 20260830215502 | 85 | 268 | 6.0 | 18.0 | 0.00 | 0.00 | 0.00 | 33 | 1015.2 |
| 20260830214508 | 84 | 245 | 14.0 | 23.0 | 0.00 | 0.00 | 0.00 | 34 | 1015.3 |
| 20260830214011 | 84 | 292 | 12.0 | 22.0 | 0.00 | 0.00 | 0.00 | 34 | 1015.4 |
| 20260830213017 | 85 | 255 | 10.0 | 20.0 | 0.00 | 0.00 | 0.00 | 34 | 1015.5 |
| 20260830212023 | 85 | 288 | 15.0 | 24.0 | 0.00 | 0.00 | 0.00 | 34 | 1015.6 |
| 20260830211526 | 85 | 260 | 8.0 | 18.0 | 0.00 | 0.00 | 0.00 | 35 | 1015.6 |
| 20260830210532 | 85 | 289 | 12.0 | 26.0 | 0.00 | 0.00 | 0.00 | 34 | 1015.7 |
| 20260830205538 | 86 | 288 | 11.0 | 19.0 | 0.00 | 0.00 | 0.00 | 34 | 1015.8 |
| 20260830204544 | 85 | 273 | 9.0 | 21.0 | 0.00 | 0.00 | 0.00 | 34 | 1015.8 |
| 20260830204047 | 85 | 226 | 12.0 | 21.0 | 0.00 | 0.00 | 0.00 | 34 | 1015.9 |